| time (UTC) | temp F | wind direction | speed knots | gust knots | rain 1hr in | rain 24hr in | rain mn in | humidity % | barometer mb |
| 20260507223515 | 56 | 40 | 3.5 | 7.0 | 0.00 | 0.13 | 0.13 | 88 | 1013.9 |
| 20260507222515 | 56 | 33 | 4.3 | 7.0 | 0.00 | 0.13 | 0.13 | 88 | 1013.8 |
| 20260507221515 | 56 | 23 | 3.5 | 6.1 | 0.00 | 0.13 | 0.13 | 89 | 1013.8 |
| 20260507220515 | 55 | 29 | 2.6 | 6.1 | 0.00 | 0.13 | 0.13 | 89 | 1013.9 |
| 20260507215517 | 55 | 33 | 3.5 | 5.2 | 0.00 | 0.13 | 0.13 | 89 | 1014.0 |
| 20260507214517 | 55 | 50 | 1.7 | 4.3 | 0.00 | 0.13 | 0.13 | 89 | 1013.9 |
| 20260507213517 | 55 | 50 | 2.6 | 4.3 | 0.00 | 0.13 | 0.13 | 89 | 1013.8 |
| 20260507212517 | 55 | 51 | 1.7 | 4.3 | 0.00 | 0.13 | 0.13 | 89 | 1013.7 |
| 20260507211516 | 55 | 47 | 1.7 | 4.3 | 0.00 | 0.13 | 0.13 | 90 | 1013.7 |
| 20260507210516 | 55 | 56 | 2.6 | 5.2 | 0.00 | 0.13 | 0.13 | 90 | 1013.6 |
| 20260507205516 | 55 | 46 | 3.5 | 4.3 | 0.00 | 0.13 | 0.13 | 90 | 1013.6 |
| 20260507204516 | 55 | 43 | 2.6 | 4.3 | 0.00 | 0.13 | 0.13 | 90 | 1013.4 |
| 20260507203516 | 56 | 40 | 2.6 | 3.5 | 0.00 | 0.13 | 0.13 | 90 | 1013.4 |
| 20260507202517 | 56 | 39 | 1.7 | 3.5 | 0.00 | 0.13 | 0.13 | 90 | 1013.3 |
| 20260507201516 | 56 | 39 | 0.9 | 2.6 | 0.00 | 0.13 | 0.13 | 90 | 1013.2 |
| 20260507200516 | 57 | 39 | 0.9 | 2.6 | 0.00 | 0.13 | 0.13 | 90 | 1013.0 |
| 20260507195515 | 57 | 37 | 1.7 | 3.5 | 0.00 | 0.13 | 0.13 | 90 | 1012.9 |
| 20260507194515 | 57 | 38 | 2.6 | 3.5 | 0.00 | 0.13 | 0.13 | 90 | 1012.9 |
| 20260507193515 | 57 | 26 | 2.6 | 3.5 | 0.00 | 0.13 | 0.13 | 89 | 1012.8 |
| 20260507192517 | 58 | 26 | 1.7 | 3.5 | 0.00 | 0.13 | 0.13 | 89 | 1012.7 |
| 20260507191538 | 58 | 38 | 0.9 | 1.7 | 0.00 | 0.13 | 0.13 | 89 | 1012.6 |
| 20260507190517 | 59 | 37 | 0.9 | 2.6 | 0.00 | 0.13 | 0.13 | 88 | 1012.5 |
| 20260507185516 | 59 | 34 | 0.9 | 2.6 | 0.00 | 0.13 | 0.13 | 88 | 1012.3 |
| 20260507184516 | 59 | 34 | 1.7 | 3.5 | 0.00 | 0.13 | 0.13 | 88 | 1012.2 |
| 20260507183516 | 60 | 44 | 0.9 | 4.3 | 0.00 | 0.13 | 0.13 | 87 | 1012.1 |
| 20260507182516 | 60 | 46 | 2.6 | 4.3 | 0.00 | 0.13 | 0.13 | 86 | 1012.0 |
| 20260507181515 | 61 | 37 | 2.6 | 5.2 | 0.00 | 0.13 | 0.13 | 85 | 1011.9 |
| 20260507180515 | 62 | 32 | 3.5 | 6.1 | 0.00 | 0.13 | 0.13 | 84 | 1011.8 |
| 20260507175515 | 62 | 24 | 2.6 | 7.0 | 0.00 | 0.13 | 0.13 | 83 | 1011.7 |
| 20260507174537 | 63 | 32 | 1.7 | 7.8 | 0.00 | 0.13 | 0.13 | 81 | 1011.6 |
| 20260507173537 | 63 | 34 | 3.5 | 6.1 | 0.00 | 0.13 | 0.13 | 80 | 1011.5 |
| 20260507172516 | 64 | 60 | 1.7 | 5.2 | 0.00 | 0.13 | 0.13 | 81 | 1011.5 |
| 20260507171516 | 64 | 57 | 1.7 | 4.3 | 0.00 | 0.13 | 0.13 | 80 | 1011.5 |
| 20260507170516 | 64 | 80 | 3.5 | 6.1 | 0.00 | 0.13 | 0.13 | 80 | 1011.5 |
| 20260507165516 | 65 | 95 | 0.9 | 6.1 | 0.00 | 0.13 | 0.13 | 79 | 1011.4 |
| 20260507164536 | 65 | 74 | 2.6 | 5.2 | 0.00 | 0.13 | 0.13 | 81 | 1011.4 |
| 20260507163517 | 65 | 73 | 1.7 | 7.8 | 0.00 | 0.13 | 0.13 | 80 | 1011.3 |
| 20260507162517 | 65 | 72 | 3.5 | 8.7 | 0.00 | 0.13 | 0.13 | 80 | 1011.3 |
| 20260507161516 | 65 | 73 | 5.2 | 8.7 | 0.01 | 0.13 | 0.13 | 79 | 1011.2 |
| 20260507160516 | 65 | 70 | 4.3 | 7.8 | 0.02 | 0.13 | 0.13 | 83 | 1011.2 |
| 20260507155516 | 64 | 97 | 1.7 | 5.2 | 0.13 | 0.14 | 0.13 | 84 | 1011.1 |
| 20260507154516 | 64 | 43 | 3.5 | 5.2 | 0.13 | 0.17 | 0.13 | 86 | 1011.0 |
| 20260507153556 | 63 | 57 | 2.6 | 6.1 | 0.13 | 0.17 | 0.13 | 87 | 1011.0 |
| 20260507152515 | 62 | 18 | 5.2 | 11.3 | 0.13 | 0.20 | 0.13 | 85 | 1011.0 |
| 20260507151517 | 65 | 14 | 4.3 | 13.9 | 0.12 | 0.23 | 0.12 | 79 | 1010.9 |
| 20260507150517 | 67 | 117 | 0.9 | 9.6 | 0.11 | 0.24 | 0.11 | 76 | 1010.8 |
| 20260507145537 | 68 | 126 | 2.6 | 13.9 | 0.00 | 0.15 | 0.00 | 72 | 1010.1 |
| 20260507144516 | 68 | 126 | 4.3 | 12.2 | 0.00 | 0.16 | 0.00 | 71 | 1009.9 |
| 20260507143516 | 69 | 125 | 4.3 | 12.2 | 0.00 | 0.16 | 0.00 | 70 | 1009.6 |
| 20260507142516 | 70 | 126 | 6.1 | 13.0 | 0.00 | 0.16 | 0.00 | 67 | 1009.8 |
| 20260507141536 | 71 | 132 | 4.3 | 10.4 | 0.00 | 0.16 | 0.00 | 62 | 1009.8 |
| 20260507140536 | 73 | 140 | 4.3 | 10.4 | 0.00 | 0.16 | 0.00 | 59 | 1009.9 |
| 20260507135515 | 74 | 141 | 4.3 | 9.6 | 0.00 | 0.16 | 0.00 | 58 | 1009.9 |
| 20260507134515 | 74 | 130 | 5.2 | 11.3 | 0.00 | 0.16 | 0.00 | 55 | 1009.9 |
| 20260507133558 | 74 | 133 | 3.5 | 11.3 | 0.00 | 0.16 | 0.00 | 55 | 1009.8 |
| 20260507132519 | 74 | 132 | 5.2 | 10.4 | 0.00 | 0.16 | 0.00 | 57 | 1009.9 |
| 20260507131517 | 74 | 140 | 4.3 | 12.2 | 0.00 | 0.16 | 0.00 | 58 | 1010.0 |
| 20260507130516 | 74 | 168 | 5.2 | 10.4 | 0.00 | 0.16 | 0.00 | 59 | 1010.1 |
| 20260507125516 | 74 | 155 | 5.2 | 11.3 | 0.00 | 0.16 | 0.00 | 57 | 1010.0 |
| 20260507124516 | 75 | 168 | 5.2 | 10.4 | 0.00 | 0.16 | 0.00 | 56 | 1010.0 |
| 20260507123515 | 74 | 143 | 4.3 | 9.6 | 0.00 | 0.17 | 0.00 | 52 | 1010.1 |
| 20260507122517 | 74 | 117 | 5.2 | 8.7 | 0.00 | 0.17 | 0.00 | 53 | 1010.1 |
| 20260507121517 | 73 | 184 | 5.2 | 8.7 | 0.00 | 0.17 | 0.00 | 57 | 1010.2 |
| 20260507120516 | 73 | 170 | 4.3 | 10.4 | 0.00 | 0.17 | 0.00 | 58 | 1010.2 |
| 20260507115516 | 71 | 143 | 1.7 | 11.3 | 0.00 | 0.17 | 0.00 | 58 | 1010.2 |
| 20260507114536 | 71 | 147 | 3.5 | 8.7 | 0.00 | 0.17 | 0.00 | 59 | 1010.3 |
| 20260507113515 | 72 | 95 | 3.5 | 7.0 | 0.00 | 0.17 | 0.00 | 62 | 1010.3 |
| 20260507112516 | 74 | 109 | 4.3 | 9.6 | 0.00 | 0.17 | 0.00 | 59 | 1010.4 |
| 20260507111535 | 73 | 105 | 2.6 | 7.0 | 0.00 | 0.17 | 0.00 | 61 | 1010.4 |
| 20260507110538 | 73 | 82 | 4.3 | 8.7 | 0.00 | 0.17 | 0.00 | 60 | 1010.5 |
| 20260507105517 | 73 | 117 | 3.5 | 7.8 | 0.00 | 0.17 | 0.00 | 59 | 1010.6 |
| 20260507104517 | 72 | 152 | 3.5 | 6.1 | 0.00 | 0.17 | 0.00 | 60 | 1010.6 |
| 20260507103517 | 72 | 54 | 2.6 | 7.0 | 0.00 | 0.18 | 0.00 | 67 | 1010.8 |
| 20260507102516 | 72 | 95 | 1.7 | 6.1 | 0.00 | 0.19 | 0.00 | 63 | 1010.9 |
| 20260507101517 | 72 | 149 | 2.6 | 7.0 | 0.00 | 0.19 | 0.00 | 66 | 1010.9 |
| 20260507100516 | 71 | 96 | 2.6 | 5.2 | 0.00 | 0.19 | 0.00 | 72 | 1011.0 |
| 20260507095516 | 70 | 86 | 1.7 | 5.2 | 0.00 | 0.20 | 0.00 | 70 | 1010.9 |
| 20260507094515 | 70 | 72 | 0.9 | 3.5 | 0.00 | 0.20 | 0.00 | 71 | 1010.9 |
| 20260507093515 | 70 | 85 | 1.7 | 5.2 | 0.00 | 0.20 | 0.00 | 71 | 1010.8 |
| 20260507092515 | 70 | 109 | 3.5 | 7.8 | 0.00 | 0.21 | 0.00 | 74 | 1010.8 |
| 20260507091517 | 70 | 104 | 1.7 | 5.2 | 0.00 | 0.21 | 0.00 | 70 | 1010.8 |
| 20260507090520 | 70 | 123 | 1.7 | 6.1 | 0.00 | 0.21 | 0.00 | 73 | 1010.8 |
| 20260507085517 | 69 | 23 | 1.7 | 5.2 | 0.00 | 0.21 | 0.00 | 72 | 1010.8 |
| 20260507084516 | 69 | 83 | 0.9 | 7.0 | 0.00 | 0.21 | 0.00 | 73 | 1010.8 |
| 20260507083536 | 69 | 74 | 1.7 | 5.2 | 0.00 | 0.21 | 0.00 | 74 | 1010.8 |
| 20260507082517 | 68 | 91 | 2.6 | 5.2 | 0.00 | 0.21 | 0.00 | 76 | 1010.7 |
| 20260507081517 | 67 | 76 | 0.0 | 4.3 | 0.00 | 0.22 | 0.00 | 75 | 1010.6 |
| 20260507080516 | 67 | 83 | 3.5 | 7.0 | 0.00 | 0.22 | 0.00 | 79 | 1010.6 |
| 20260507075516 | 66 | 92 | 1.7 | 4.3 | 0.00 | 0.22 | 0.00 | 79 | 1010.6 |
| 20260507074516 | 65 | 104 | 0.9 | 6.1 | 0.00 | 0.22 | 0.00 | 81 | 1010.5 |
| 20260507073516 | 65 | 62 | 2.6 | 5.2 | 0.00 | 0.23 | 0.00 | 82 | 1010.5 |
| 20260507072519 | 64 | 76 | 2.6 | 7.8 | 0.00 | 0.24 | 0.00 | 84 | 1010.5 |
| 20260507071516 | 64 | 47 | 2.6 | 7.0 | 0.00 | 0.24 | 0.00 | 86 | 1010.4 |
| 20260507070515 | 63 | 52 | 3.5 | 5.2 | 0.00 | 0.24 | 0.00 | 87 | 1010.4 |
| 20260507065515 | 63 | 25 | 1.7 | 6.1 | 0.00 | 0.24 | 0.00 | 89 | 1010.3 |
| 20260507064517 | 62 | 18 | 3.5 | 5.2 | 0.00 | 0.24 | 0.00 | 90 | 1010.3 |
| 20260507063517 | 61 | 30 | 3.5 | 6.1 | 0.00 | 0.24 | 0.00 | 88 | 1010.2 |
| 20260507062517 | 61 | 28 | 2.6 | 7.0 | 0.00 | 0.24 | 0.00 | 88 | 1010.1 |
| 20260507061517 | 61 | 28 | 2.6 | 7.0 | 0.00 | 0.24 | 0.00 | 88 | 1010.1 |
| 20260507060516 | 61 | 29 | 4.3 | 7.0 | 0.00 | 0.25 | 0.00 | 86 | 1010.0 |
| 20260507055517 | 60 | 33 | 4.3 | 7.8 | 0.00 | 0.25 | 0.00 | 85 | 1010.0 |
| 20260507054516 | 60 | 35 | 4.3 | 7.0 | 0.00 | 0.25 | 0.00 | 85 | 1009.8 |
| 20260507053516 | 60 | 55 | 3.5 | 7.0 | 0.00 | 0.27 | 0.00 | 85 | 1009.6 |
| 20260507052516 | 59 | 53 | 2.6 | 6.1 | 0.00 | 0.27 | 0.00 | 85 | 1009.5 |
| 20260507051535 | 59 | 33 | 0.9 | 3.5 | 0.00 | 0.27 | 0.00 | 85 | 1009.5 |
| 20260507050517 | 58 | 32 | 0.9 | 4.3 | 0.00 | 0.27 | 0.00 | 86 | 1009.4 |
| 20260507045517 | 58 | 58 | 2.6 | 4.3 | 0.00 | 0.27 | 0.00 | 85 | 1009.2 |
| 20260507044517 | 59 | 43 | 0.9 | 3.5 | 0.00 | 0.27 | 0.00 | 85 | 1009.1 |
| 20260507043516 | 59 | 45 | 0.0 | 1.7 | 0.00 | 0.27 | 0.00 | 85 | 1009.1 |
| 20260507042517 | 59 | 45 | 0.9 | 2.6 | 0.00 | 0.27 | 0.00 | 86 | 1009.0 |
| 20260507041515 | 59 | 43 | 2.6 | 3.5 | 0.00 | 0.27 | 0.01 | 85 | 1008.9 |
| 20260507040517 | 59 | 27 | 1.7 | 2.6 | 0.00 | 0.27 | 0.01 | 85 | 1008.8 |
| 20260507035517 | 59 | 22 | 0.9 | 3.5 | 0.01 | 0.27 | 0.01 | 85 | 1008.8 |
| 20260507034517 | 59 | 20 | 0.9 | 3.5 | 0.01 | 0.27 | 0.01 | 85 | 1008.8 |
| 20260507033517 | 59 | 20 | 0.9 | 2.6 | 0.01 | 0.27 | 0.01 | 85 | 1008.9 |
| 20260507032517 | 59 | 20 | 0.9 | 2.6 | 0.01 | 0.27 | 0.01 | 85 | 1008.8 |
| 20260507031516 | 59 | 20 | 0.0 | 1.7 | 0.01 | 0.27 | 0.01 | 85 | 1008.8 |
| 20260507030516 | 59 | 20 | 0.9 | 2.6 | 0.01 | 0.27 | 0.01 | 85 | 1008.9 |
| 20260507025515 | 59 | 20 | 0.9 | 2.6 | 0.00 | 0.26 | 0.00 | 85 | 1008.9 |
| 20260507024516 | 59 | 20 | 0.9 | 3.5 | 0.00 | 0.26 | 0.00 | 85 | 1008.8 |
| 20260507023515 | 59 | 20 | 0.9 | 1.7 | 0.00 | 0.26 | 0.00 | 85 | 1008.8 |
| 20260507022515 | 59 | 20 | 0.9 | 2.6 | 0.00 | 0.26 | 0.00 | 86 | 1008.8 |
| 20260507021517 | 59 | 20 | 1.7 | 2.6 | 0.00 | 0.26 | 0.00 | 86 | 1008.7 |
| 20260507020517 | 58 | 20 | 1.7 | 3.5 | 0.00 | 0.26 | 0.00 | 86 | 1008.7 |
| 20260507015516 | 58 | 20 | 0.9 | 2.6 | 0.00 | 0.26 | 0.00 | 86 | 1008.7 |
| 20260507014537 | 58 | 44 | 0.9 | 2.6 | 0.00 | 0.26 | 0.00 | 86 | 1008.7 |
| 20260507013516 | 59 | 45 | 1.7 | 3.5 | 0.00 | 0.26 | 0.00 | 86 | 1008.7 |
| 20260507012515 | 59 | 39 | 2.6 | 4.3 | 0.00 | 0.26 | 0.00 | 86 | 1008.7 |
| 20260507011516 | 58 | 35 | 2.6 | 4.3 | 0.00 | 0.26 | 0.00 | 86 | 1008.8 |
| 20260507010515 | 58 | 36 | 0.9 | 2.6 | 0.00 | 0.26 | 0.00 | 86 | 1008.9 |
| 20260507005556 | 58 | 36 | 1.7 | 3.5 | 0.00 | 0.26 | 0.00 | 87 | 1008.8 |
| 20260507004517 | 58 | 74 | 0.9 | 2.6 | 0.00 | 0.26 | 0.00 | 87 | 1008.8 |
| 20260507003518 | 58 | 73 | 0.0 | 1.7 | 0.00 | 0.26 | 0.00 | 87 | 1008.8 |
| 20260507002517 | 58 | 73 | 0.9 | 2.6 | 0.00 | 0.26 | 0.00 | 87 | 1008.8 |
| 20260507001515 | 59 | 73 | 0.0 | 0.9 | 0.00 | 0.26 | 0.00 | 87 | 1008.9 |
| 20260507000516 | 59 | 73 | 0.9 | 1.7 | 0.00 | 0.26 | 0.00 | 87 | 1008.9 |
| 20260506235515 | 59 | 74 | 0.9 | 3.5 | 0.00 | 0.26 | 0.00 | 87 | 1008.9 |
| 20260506234517 | 59 | 70 | 2.6 | 4.3 | 0.00 | 0.26 | 0.00 | 87 | 1008.8 |
| 20260506233518 | 59 | 71 | 2.6 | 4.3 | 0.00 | 0.26 | 0.00 | 87 | 1008.9 |
| 20260506232517 | 60 | 74 | 1.7 | 4.3 | 0.00 | 0.26 | 0.00 | 87 | 1008.9 |
| 20260506231516 | 60 | 59 | 2.6 | 3.5 | 0.00 | 0.26 | 0.00 | 87 | 1009.0 |
| 20260506230516 | 60 | 50 | 1.7 | 3.5 | 0.00 | 0.26 | 0.00 | 88 | 1009.0 |
| 20260506225536 | 60 | 57 | 1.7 | 4.3 | 0.00 | 0.26 | 0.00 | 88 | 1009.1 |
| 20260506224516 | 59 | 70 | 2.6 | 5.2 | 0.00 | 0.26 | 0.00 | 87 | 1009.1 |